FW2780 Weather Reports


Display with metric or nautical units.
time (UTC)temp
F
wind
direction
speed
MPH
gust
MPH
rain 1hr
in
rain 24hr
in
rain mn
in
humidity
%
barometer
mb
20260504090125 36 289 13.0 23.0 0.04 0.42 0.06 94 978.0
20260504081556 37 267 5.0 18.0 0.02 0.39 0.03 94 976.4
20260504044537 40 314 1.0 10.0 0.00 0.35 0.00 88 977.4
20260504043026 41 109 4.0 9.0 0.00 0.35 0.00 87 977.5
20260504041523 41 29 5.0 11.0 0.00 0.35 0.00 88 978.2
20260504040020 41 112 7.0 22.0 0.00 0.35 0.00 88 977.8
20260504034527 41 131 7.0 27.0 0.00 0.35 0.00 89 977.5
20260504033017 41 47 10.0 28.0 0.00 0.35 0.00 90 977.7
20260504031513 41 98 15.0 29.0 0.00 0.35 0.00 90 978.1
20260504030011 41 100 13.0 30.0 0.00 0.35 0.00 90 978.7
20260504024515 41 125 16.0 31.0 0.00 0.35 0.35 89 979.3
20260504023005 40 65 12.0 29.0 0.00 0.35 0.35 89 980.2
20260504021504 40 77 13.0 43.0 0.00 0.35 0.35 89 981.2
20260504020005 40 108 18.0 41.0 0.00 0.35 0.35 89 981.3
20260504014603 40 122 20.0 48.0 0.01 0.35 0.35 89 981.7
20260504013057 40 89 20.0 36.0 0.01 0.35 0.35 89 982.4
20260504011555 41 98 22.0 45.0 0.02 0.35 0.35 89 983.8
20260504010057 40 102 22.0 53.0 0.02 0.35 0.35 89 984.1
20260504004549 40 118 23.0 46.0 0.02 0.35 0.35 89 985.2
20260504003046 40 79 19.0 35.0 0.04 0.35 0.35 90 986.7
20260504001601 41 104 17.0 41.0 0.03 0.33 0.33 90 988.1
20260504000043 41 55 18.0 34.0 0.05 0.33 0.33 90 989.1
20260503234536 41 55 12.0 33.0 0.06 0.32 0.32 91 989.9
20260503233034 41 71 11.0 26.0 0.06 0.31 0.31 92 991.3
20260503231530 41 46 8.0 20.0 0.08 0.30 0.30 93 992.3
20260503230028 40 72 6.0 10.0 0.11 0.28 0.28 94 993.5
20260503224524 39 254 0.0 6.0 0.14 0.26 0.26 93 994.4
20260503223021 39 254 3.0 5.0 0.14 0.24 0.24 92 995.2
20260503221529 38 18 1.0 6.0 0.13 0.21 0.21 92 995.6
20260503220018 38 55 0.0 13.0 0.09 0.17 0.17 91 996.4
20260503214515 38 69 9.0 18.0 0.05 0.11 0.11 91 996.1
20260503213026 38 55 9.0 18.0 0.05 0.09 0.09 90 997.2
20260503211516 39 78 8.0 18.0 0.08 0.09 0.09 89 998.7
20260503210007 39 73 12.0 21.0 0.08 0.08 0.08 90 998.4
20260503204504 39 40 4.0 10.0 0.06 0.06 0.06 89 999.6
20260503203101 40 105 2.0 11.0 0.05 0.05 0.05 88 1000.1
20260503201600 40 65 6.0 10.0 0.01 0.01 0.01 86 1000.5
20260503200054 41 77 5.0 17.0 0.00 0.00 0.00 83 1001.5
20260503194551 42 103 11.0 18.0 0.00 0.00 0.00 78 1002.6
20260503193053 43 75 9.0 18.0 0.00 0.00 0.00 77 1002.9
20260503191545 44 90 11.0 19.0 0.00 0.00 0.00 73 1004.0
20260503190042 46 172 9.0 17.0 0.00 0.00 0.00 68 1004.5
20260503184541 47 101 9.0 18.0 0.00 0.00 0.00 64 1005.0
20260503183042 49 79 11.0 22.0 0.00 0.00 0.00 58 1005.4
20260503181612 50 114 11.0 19.0 0.00 0.00 0.00 54 1005.4
20260503180040 50 98 9.0 18.0 0.00 0.00 0.00 52 1005.5
20260503174532 51 89 9.0 22.0 0.00 0.00 0.00 49 1006.4
20260503173045 51 102 9.0 17.0 0.00 0.00 0.00 45 1006.7
20260503171528 51 162 8.0 17.0 0.00 0.00 0.00 47 1007.0